Station Historical Data
Daily Summary for May 10, 2017 Units:  English    Metric   Both
Next Day »
Daily Weekly Monthly Yearly Custom
  High: Low: Average:
Temperature: 72.9 °F 54.7 °F 62.7 °F
Dew Point: 56.3 °F 46.3 °F 51.1 °F
Humidity: 80% 55% 66%
Wind Speed: 12.0mph 0.0mph 2.3mph
Wind Gust: 20.0mph - -
Wind- - SSE
Pressure: 30.06 in 29.84 in -
Precipitation: 0.00 in    
Historical Graphs
 
 
Tabular Data for May 10, 2017
Time Temperature Dew Point Pressure Wind Wind Speed Wind Gust Humidity Rainfall Rate (Hourly) solar Conditions
00:02 62.2 °F 51.5 °F 29.85 in ESE 2.0 mph 5.0 mph 68% 0.00 in 0.00 W/m2
00:07 62.1 °F 51.4 °F 29.85 in Calm   5.0 mph 68% 0.00 in 0.00 W/m2
00:12 62.0 °F 51.3 °F 29.85 in ESE 2.0 mph 6.0 mph 68% 0.00 in 0.00 W/m2
00:17 61.9 °F 51.2 °F 29.85 in ESE 4.0 mph 8.0 mph 68% 0.00 in 0.00 W/m2
00:22 61.8 °F 51.1 °F 29.85 in ESE 4.0 mph 9.0 mph 68% 0.00 in 0.00 W/m2
00:27 61.7 °F 51.0 °F 29.85 in ESE 1.0 mph 5.0 mph 68% 0.00 in 0.00 W/m2
00:28 61.7 °F 51.0 °F 29.85 in Calm   5.0 mph 68% 0.00 in 0.00 W/m2
00:33 61.6 °F 51.0 °F 29.85 in ESE 1.0 mph 5.0 mph 68% 0.00 in 0.00 W/m2
00:38 61.5 °F 50.8 °F 29.85 in ESE 2.0 mph 8.0 mph 68% 0.00 in 0.00 W/m2
00:43 61.4 °F 50.8 °F 29.85 in ESE 1.0 mph 7.0 mph 68% 0.00 in 0.00 W/m2
00:48 61.4 °F 50.8 °F 29.85 in ESE 7.0 mph 8.0 mph 68% 0.00 in 0.00 W/m2
00:53 61.3 °F 50.7 °F 29.85 in Calm   9.0 mph 68% 0.00 in 0.00 W/m2
00:58 61.2 °F 50.6 °F 29.85 in ESE 4.0 mph 9.0 mph 68% 0.00 in 0.00 W/m2
01:03 61.2 °F 50.6 °F 29.85 in Calm   7.0 mph 68% 0.00 in 0.00 W/m2
01:08 61.1 °F 50.5 °F 29.85 in Calm   8.0 mph 68% 0.00 in 0.00 W/m2
01:13 61.0 °F 50.4 °F 29.85 in Calm   9.0 mph 68% 0.00 in 0.00 W/m2
01:18 61.0 °F 50.4 °F 29.85 in ESE 6.0 mph 7.0 mph 68% 0.00 in 0.00 W/m2
01:23 60.9 °F 50.7 °F 29.84 in ESE 6.0 mph 11.0 mph 69% 0.00 in 0.00 W/m2
01:28 60.9 °F 50.3 °F 29.85 in ESE 5.0 mph 7.0 mph 68% 0.00 in 0.00 W/m2
01:33 60.8 °F 50.2 °F 29.85 in ESE 2.0 mph 7.0 mph 68% 0.00 in 0.00 W/m2
01:38 60.8 °F 49.8 °F 29.84 in ESE 2.0 mph 8.0 mph 67% 0.00 in 0.00 W/m2
01:43 60.7 °F 50.1 °F 29.84 in ESE 4.0 mph 9.0 mph 68% 0.00 in 0.00 W/m2
01:48 60.7 °F 50.1 °F 29.84 in ESE 6.0 mph 11.0 mph 68% 0.00 in 0.00 W/m2
01:53 60.6 °F 49.6 °F 29.84 in ESE 6.0 mph 8.0 mph 67% 0.00 in 0.00 W/m2
01:58 60.5 °F 49.9 °F 29.84 in East 4.0 mph 11.0 mph 68% 0.00 in 0.00 W/m2
02:03 60.5 °F 49.9 °F 29.84 in ESE 1.0 mph 9.0 mph 68% 0.00 in 0.00 W/m2
02:08 60.4 °F 49.8 °F 29.84 in ESE 1.0 mph 8.0 mph 68% 0.00 in 0.00 W/m2
02:13 60.4 °F 49.8 °F 29.84 in ESE 2.0 mph 11.0 mph 68% 0.00 in 0.00 W/m2
02:18 60.3 °F 49.7 °F 29.84 in East 4.0 mph 11.0 mph 68% 0.00 in 0.00 W/m2
02:23 60.2 °F 49.6 °F 29.84 in East 4.0 mph 11.0 mph 68% 0.00 in 0.00 W/m2
02:28 60.2 °F 49.6 °F 29.84 in ESE 7.0 mph 12.0 mph 68% 0.00 in 0.00 W/m2
02:33 60.1 °F 49.1 °F 29.84 in Calm   12.0 mph 67% 0.00 in 0.00 W/m2
02:38 60.0 °F 49.0 °F 29.84 in ESE 12.0 mph 12.0 mph 67% 0.00 in 0.00 W/m2
02:43 60.0 °F 49.0 °F 29.84 in ESE 4.0 mph 7.0 mph 67% 0.00 in 0.00 W/m2
02:48 59.9 °F 48.9 °F 29.84 in ESE 4.0 mph 9.0 mph 67% 0.00 in 0.00 W/m2
02:53 59.9 °F 48.9 °F 29.84 in East 5.0 mph 6.0 mph 67% 0.00 in 0.00 W/m2
02:58 59.8 °F 48.8 °F 29.84 in ESE 4.0 mph 7.0 mph 67% 0.00 in 0.00 W/m2
03:03 59.8 °F 48.8 °F 29.84 in ESE 1.0 mph 8.0 mph 67% 0.00 in 0.00 W/m2
03:09 59.7 °F 48.7 °F 29.84 in ESE 2.0 mph 6.0 mph 67% 0.00 in 0.00 W/m2
03:14 59.6 °F 48.2 °F 29.84 in ESE 1.0 mph 7.0 mph 66% 0.00 in 0.00 W/m2
03:19 59.6 °F 48.6 °F 29.84 in East 5.0 mph 9.0 mph 67% 0.00 in 0.00 W/m2
03:24 59.5 °F 48.2 °F 29.84 in ESE 1.0 mph 11.0 mph 66% 0.00 in 0.00 W/m2
03:29 59.5 °F 48.2 °F 29.84 in ESE 1.0 mph 9.0 mph 66% 0.00 in 0.00 W/m2
03:34 59.4 °F 48.0 °F 29.84 in ESE 4.0 mph 7.0 mph 66% 0.00 in 0.00 W/m2
03:39 59.4 °F 47.7 °F 29.84 in ESE 6.0 mph 9.0 mph 65% 0.00 in 0.00 W/m2
03:44 59.3 °F 47.5 °F 29.84 in East 4.0 mph 12.0 mph 65% 0.00 in 0.00 W/m2
03:49 59.3 °F 48.0 °F 29.84 in ESE 2.0 mph 6.0 mph 66% 0.00 in 0.00 W/m2
03:54 59.2 °F 47.5 °F 29.84 in East 5.0 mph 11.0 mph 65% 0.00 in 0.00 W/m2
03:59 59.2 °F 47.5 °F 29.84 in East 4.0 mph 11.0 mph 65% 0.00 in 0.00 W/m2
04:01 59.2 °F 47.5 °F 29.84 in SE 1.0 mph 4.0 mph 65% 0.00 in 0.00 W/m2
04:06 59.1 °F 47.4 °F 29.84 in ESE 1.0 mph 4.0 mph 65% 0.00 in 0.00 W/m2
04:11 59.1 °F 47.4 °F 29.84 in Calm   6.0 mph 65% 0.00 in 0.00 W/m2
04:16 59.1 °F 47.4 °F 29.84 in ESE 5.0 mph 5.0 mph 65% 0.00 in 0.00 W/m2
04:21 59.0 °F 47.7 °F 29.84 in ESE 1.0 mph 7.0 mph 66% 0.00 in 0.00 W/m2
04:26 59.0 °F 47.3 °F 29.84 in Calm   7.0 mph 65% 0.00 in 0.00 W/m2
04:29 59.0 °F 47.3 °F 29.84 in East 2.0 mph 7.0 mph 65% 0.00 in 0.00 W/m2
04:34 58.9 °F 47.6 °F 29.84 in Calm   9.0 mph 66% 0.00 in 0.00 W/m2
04:39 58.9 °F 47.2 °F 29.84 in Calm   7.0 mph 65% 0.00 in 0.00 W/m2
04:44 58.8 °F 47.1 °F 29.84 in ESE 5.0 mph 12.0 mph 65% 0.00 in 0.00 W/m2
04:49 58.8 °F 47.1 °F 29.84 in ESE 6.0 mph 9.0 mph 65% 0.00 in 0.00 W/m2
04:54 58.8 °F 47.1 °F 29.84 in Calm   13.0 mph 65% 0.00 in 0.00 W/m2
04:59 58.7 °F 46.6 °F 29.84 in East 1.0 mph 11.0 mph 64% 0.00 in 0.00 W/m2
05:04 58.7 °F 47.0 °F 29.84 in East 2.0 mph 11.0 mph 65% 0.00 in 0.00 W/m2
05:09 58.7 °F 47.0 °F 29.84 in East 4.0 mph 14.0 mph 65% 0.00 in 0.00 W/m2
05:14 58.6 °F 46.9 °F 29.85 in ESE 2.0 mph 11.0 mph 65% 0.00 in 0.00 W/m2
05:19 58.6 °F 46.9 °F 29.85 in Calm   7.0 mph 65% 0.00 in 0.00 W/m2
05:24 58.6 °F 46.9 °F 29.85 in Calm   8.0 mph 65% 0.00 in 0.00 W/m2
05:29 58.5 °F 46.8 °F 29.85 in ESE 4.0 mph 14.0 mph 65% 0.00 in 0.00 W/m2
05:34 58.5 °F 46.8 °F 29.85 in ESE 1.0 mph 14.0 mph 65% 0.00 in 0.00 W/m2
05:39 58.5 °F 46.8 °F 29.85 in ESE 8.0 mph 11.0 mph 65% 0.00 in 0.00 W/m2
05:40 58.5 °F 46.8 °F 29.85 in ESE 4.0 mph 11.0 mph 65% 0.00 in 0.00 W/m2
05:45 58.5 °F 46.4 °F 29.85 in ESE 5.0 mph 12.0 mph 64% 0.00 in 0.00 W/m2
05:50 58.5 °F 46.8 °F 29.85 in East 7.0 mph 12.0 mph 65% 0.00 in 0.00 W/m2
05:55 58.5 °F 46.4 °F 29.85 in ESE 1.0 mph 13.0 mph 64% 0.00 in 5.00 W/m2
06:00 58.5 °F 46.4 °F 29.85 in East 8.0 mph 12.0 mph 64% 0.00 in 7.00 W/m2
06:05 58.5 °F 46.8 °F 29.86 in East 8.0 mph 11.0 mph 65% 0.00 in 11.00 W/m2
06:10 58.4 °F 46.3 °F 29.86 in SE 1.0 mph 17.0 mph 64% 0.00 in 14.00 W/m2
06:15 58.4 °F 46.7 °F 29.86 in Calm   20.0 mph 65% 0.00 in 18.00 W/m2
06:20 58.4 °F 46.7 °F 29.86 in Calm   5.0 mph 65% 0.00 in 21.00 W/m2
06:25 58.4 °F 46.7 °F 29.87 in ESE 2.0 mph 8.0 mph 65% 0.00 in 26.00 W/m2
06:30 58.4 °F 46.7 °F 29.87 in ESE 1.0 mph 7.0 mph 65% 0.00 in 35.00 W/m2
06:35 58.4 °F 47.1 °F 29.87 in ESE 1.0 mph 9.0 mph 66% 0.00 in 44.00 W/m2
06:40 58.3 °F 46.6 °F 29.87 in ESE 1.0 mph 7.0 mph 65% 0.00 in 58.00 W/m2
06:45 58.3 °F 47.0 °F 29.87 in Calm   8.0 mph 66% 0.00 in 72.00 W/m2
06:50 58.2 °F 46.5 °F 29.87 in SE 1.0 mph 6.0 mph 65% 0.00 in 84.00 W/m2
06:55 58.2 °F 46.9 °F 29.88 in ESE 2.0 mph 7.0 mph 66% 0.00 in 100.00 W/m2
07:00 58.2 °F 47.3 °F 29.88 in SE 2.0 mph 8.0 mph 67% 0.00 in 118.00 W/m2
07:05 58.3 °F 47.8 °F 29.88 in Calm   5.0 mph 68% 0.00 in 137.00 W/m2
07:10 58.2 °F 47.3 °F 29.88 in ESE 2.0 mph 7.0 mph 67% 0.00 in 151.00 W/m2
07:15 58.3 °F 47.4 °F 29.88 in ESE 4.0 mph 7.0 mph 67% 0.00 in 178.00 W/m2
07:20 58.3 °F 47.8 °F 29.89 in Calm   6.0 mph 68% 0.00 in 199.00 W/m2
07:25 58.3 °F 48.2 °F 29.89 in SE 2.0 mph 5.0 mph 69% 0.00 in 220.00 W/m2
07:30 58.3 °F 47.8 °F 29.89 in Calm   6.0 mph 68% 0.00 in 230.00 W/m2
07:35 58.4 °F 48.3 °F 29.89 in Calm   4.0 mph 69% 0.00 in 264.00 W/m2
07:39 58.4 °F 48.3 °F 29.89 in Calm   4.0 mph 69% 0.00 in 274.00 W/m2
07:44 58.4 °F 48.7 °F 29.89 in ESE 2.0 mph 5.0 mph 70% 0.00 in 290.00 W/m2
07:49 58.4 °F 48.3 °F 29.90 in SE 1.0 mph 5.0 mph 69% 0.00 in 301.00 W/m2
07:54 58.5 °F 48.8 °F 29.90 in Calm   2.0 mph 70% 0.00 in 315.00 W/m2
07:59 58.5 °F 49.1 °F 29.90 in Calm   7.0 mph 71% 0.00 in 336.00 W/m2
08:04 58.6 °F 48.9 °F 29.90 in Calm   6.0 mph 70% 0.00 in 364.00 W/m2
08:09 58.7 °F 49.0 °F 29.90 in SE 5.0 mph 9.0 mph 70% 0.00 in 385.00 W/m2
08:14 58.8 °F 48.7 °F 29.90 in Calm   5.0 mph 69% 0.00 in 408.00 W/m2
08:19 58.9 °F 49.2 °F 29.89 in ESE 1.0 mph 9.0 mph 70% 0.00 in 401.00 W/m2
08:24 59.1 °F 49.3 °F 29.90 in SE 1.0 mph 6.0 mph 70% 0.00 in 427.00 W/m2
08:29 59.3 °F 49.1 °F 29.90 in SE 4.0 mph 7.0 mph 69% 0.00 in 450.00 W/m2
08:34 59.6 °F 49.8 °F 29.90 in Calm   5.0 mph 70% 0.00 in 448.00 W/m2
08:39 59.8 °F 50.0 °F 29.90 in Calm   2.0 mph 70% 0.00 in 411.00 W/m2
08:44 59.9 °F 49.3 °F 29.91 in SSE 1.0 mph 5.0 mph 68% 0.00 in 490.00 W/m2
08:49 60.2 °F 50.0 °F 29.90 in Calm   6.0 mph 69% 0.00 in 485.00 W/m2
08:54 60.4 °F 50.2 °F 29.91 in SE 2.0 mph 7.0 mph 69% 0.00 in 492.00 W/m2
08:59 60.7 °F 51.2 °F 29.91 in Calm   6.0 mph 71% 0.00 in 524.00 W/m2
09:04 60.9 °F 51.1 °F 29.91 in SSE 2.0 mph 8.0 mph 70% 0.00 in 522.00 W/m2
09:09 61.1 °F 50.9 °F 29.91 in Calm   8.0 mph 69% 0.00 in 578.00 W/m2
09:14 61.4 °F 50.0 °F 29.91 in Calm   8.0 mph 66% 0.00 in 594.00 W/m2
09:19 61.7 °F 49.0 °F 29.91 in SSE 5.0 mph 8.0 mph 63% 0.00 in 606.00 W/m2
09:24 62.1 °F 49.4 °F 29.91 in Calm   8.0 mph 63% 0.00 in 629.00 W/m2
09:29 62.4 °F 50.1 °F 29.92 in SSE 9.0 mph 9.0 mph 64% 0.00 in 624.00 W/m2
09:34 62.8 °F 50.0 °F 29.92 in Calm   7.0 mph 63% 0.00 in 603.00 W/m2
09:39 63.1 °F 50.3 °F 29.92 in SSE 2.0 mph 9.0 mph 63% 0.00 in 635.00 W/m2
09:44 63.4 °F 51.0 °F 29.92 in Calm   6.0 mph 64% 0.00 in 555.00 W/m2
09:49 63.6 °F 51.6 °F 29.92 in SSW 5.0 mph 6.0 mph 65% 0.00 in 689.00 W/m2
09:54 63.8 °F 51.4 °F 29.92 in Calm   7.0 mph 64% 0.00 in 708.00 W/m2
09:59 64.0 °F 51.2 °F 29.92 in South 2.0 mph 11.0 mph 63% 0.00 in 728.00 W/m2
10:04 64.3 °F 51.5 °F 29.92 in South 5.0 mph 12.0 mph 63% 0.00 in 721.00 W/m2
10:09 64.5 °F 50.8 °F 29.92 in South 1.0 mph 11.0 mph 61% 0.00 in 694.00 W/m2
10:14 64.7 °F 51.0 °F 29.92 in Calm   10.0 mph 61% 0.00 in 758.00 W/m2
10:19 64.9 °F 51.6 °F 29.92 in Calm   11.0 mph 62% 0.00 in 763.00 W/m2
10:24 65.2 °F 51.9 °F 29.92 in South 8.0 mph 10.0 mph 62% 0.00 in 766.00 W/m2
10:29 65.5 °F 52.2 °F 29.92 in SSE 7.0 mph 10.0 mph 62% 0.00 in 782.00 W/m2
10:32 65.6 °F 51.8 °F 29.92 in Calm   10.0 mph 61% 0.00 in 795.00 W/m2
10:37 65.9 °F 52.1 °F 29.93 in South 1.0 mph 8.0 mph 61% 0.00 in 763.00 W/m2
10:42 66.1 °F 51.4 °F 29.93 in Calm   1.0 mph 59% 0.00 in 793.00 W/m2
10:47 66.3 °F 52.9 °F 29.93 in Calm   4.0 mph 62% 0.00 in 763.00 W/m2
10:52 66.6 °F 52.8 °F 29.93 in SSW 5.0 mph 10.0 mph 61% 0.00 in 837.00 W/m2
10:57 66.8 °F 52.5 °F 29.93 in Calm     60% 0.00 in 791.00 W/m2
11:03 67.0 °F 53.1 °F 29.93 in SSW 2.0 mph 6.0 mph 61% 0.00 in 853.00 W/m2
11:08 67.2 °F 52.9 °F 29.93 in SSW 7.0 mph 8.0 mph 60% 0.00 in 858.00 W/m2
11:13 67.4 °F 53.0 °F 29.93 in SSW 7.0 mph 7.0 mph 60% 0.00 in 863.00 W/m2
11:18 67.7 °F 53.8 °F 29.93 in WSW 7.0 mph 8.0 mph 61% 0.00 in 865.00 W/m2
11:23 67.9 °F 53.5 °F 29.94 in Calm   5.0 mph 60% 0.00 in 868.00 W/m2
11:28 68.0 °F 53.6 °F 29.94 in SSW 5.0 mph 10.0 mph 60% 0.00 in 881.00 W/m2
11:33 68.3 °F 53.9 °F 29.94 in Calm   9.0 mph 60% 0.00 in 905.00 W/m2
11:38 68.5 °F 54.5 °F 29.94 in SW 4.0 mph 8.0 mph 61% 0.00 in 895.00 W/m2
11:43 68.6 °F 54.2 °F 29.94 in Calm   7.0 mph 60% 0.00 in 911.00 W/m2
11:48 68.8 °F 53.9 °F 29.94 in Calm   10.0 mph 59% 0.00 in 923.00 W/m2
11:53 68.8 °F 53.4 °F 29.94 in Calm   7.0 mph 58% 0.00 in 865.00 W/m2
11:58 68.8 °F 53.9 °F 29.94 in SSW 5.0 mph 10.0 mph 59% 0.00 in 939.00 W/m2
12:03 69.0 °F 54.5 °F 29.94 in Calm   5.0 mph 60% 0.00 in 847.00 W/m2
12:08 69.3 °F 53.9 °F 29.94 in Calm   8.0 mph 58% 0.00 in 868.00 W/m2
12:13 69.5 °F 54.6 °F 29.94 in SW 6.0 mph 6.0 mph 59% 0.00 in 921.00 W/m2
12:18 69.3 °F 53.4 °F 29.95 in WSW 4.0 mph 8.0 mph 57% 0.00 in 946.00 W/m2
12:23 69.1 °F 54.7 °F 29.95 in SW 6.0 mph 8.0 mph 60% 0.00 in 926.00 W/m2
12:28 69.4 °F 54.0 °F 29.95 in Calm   8.0 mph 58% 0.00 in 963.00 W/m2
12:33 69.7 °F 54.3 °F 29.95 in Calm     58% 0.00 in 907.00 W/m2
12:38 69.8 °F 54.4 °F 29.95 in Calm   7.0 mph 58% 0.00 in 937.00 W/m2
12:43 69.6 °F 55.1 °F 29.95 in SW 3.0 mph 8.0 mph 60% 0.00 in 923.00 W/m2
12:48 69.6 °F 54.7 °F 29.95 in Calm   10.0 mph 59% 0.00 in 944.00 W/m2
12:53 69.7 °F 55.2 °F 29.95 in SW 3.0 mph 7.0 mph 60% 0.00 in 868.00 W/m2
12:58 69.9 °F 55.4 °F 29.95 in Calm   10.0 mph 60% 0.00 in 789.00 W/m2
13:03 70.3 °F 54.8 °F 29.95 in Calm   6.0 mph 58% 0.00 in 823.00 W/m2
13:08 70.3 °F 54.8 °F 29.95 in Calm   6.0 mph 58% 0.00 in 833.00 W/m2
13:13 70.6 °F 54.6 °F 29.95 in Calm   9.0 mph 57% 0.00 in 756.00 W/m2
13:18 70.8 °F 55.3 °F 29.95 in SSW 6.0 mph 9.0 mph 58% 0.00 in 891.00 W/m2
13:23 71.0 °F 55.5 °F 29.95 in South 7.0 mph 10.0 mph 58% 0.00 in 870.00 W/m2
13:28 71.2 °F 55.7 °F 29.95 in Calm   10.0 mph 58% 0.00 in 935.00 W/m2
13:33 71.5 °F 55.5 °F 29.95 in Calm   6.0 mph 57% 0.00 in 918.00 W/m2
13:38 71.7 °F 55.7 °F 29.95 in South 11.0 mph 16.0 mph 57% 0.00 in 932.00 W/m2
13:44 72.1 °F 56.0 °F 29.95 in Calm   8.0 mph 57% 0.00 in 949.00 W/m2
13:49 72.3 °F 55.7 °F 29.95 in Calm     56% 0.00 in 944.00 W/m2
13:54 72.5 °F 55.9 °F 29.95 in SW 3.0 mph 8.0 mph 56% 0.00 in 896.00 W/m2
13:59 72.7 °F 55.6 °F 29.95 in SSW 8.0 mph 8.0 mph 55% 0.00 in 893.00 W/m2
14:04 72.8 °F 56.2 °F 29.95 in Calm   11.0 mph 56% 0.00 in 896.00 W/m2
14:09 72.9 °F 56.3 °F 29.95 in South 5.0 mph 9.0 mph 56% 0.00 in 842.00 W/m2
14:14 72.9 °F 55.8 °F 29.95 in Calm   9.0 mph 55% 0.00 in 870.00 W/m2
14:19 72.9 °F 55.8 °F 29.95 in Calm   7.0 mph 55% 0.00 in 826.00 W/m2
14:24 72.9 °F 55.8 °F 29.95 in Calm   12.0 mph 55% 0.00 in 831.00 W/m2
14:29 72.9 °F 56.3 °F 29.95 in Calm   9.0 mph 56% 0.00 in 870.00 W/m2
14:34 72.5 °F 55.9 °F 29.95 in Calm   10.0 mph 56% 0.00 in 824.00 W/m2
14:39 72.1 °F 56.0 °F 29.95 in SSW 6.0 mph 9.0 mph 57% 0.00 in 833.00 W/m2
14:44 72.0 °F 56.0 °F 29.95 in SSE 4.0 mph 9.0 mph 57% 0.00 in 835.00 W/m2
14:49 71.9 °F 54.9 °F 29.95 in SW 3.0 mph 11.0 mph 55% 0.00 in 708.00 W/m2
14:51 71.8 °F 55.3 °F 29.95 in Calm     56% 0.00 in 701.00 W/m2
14:54 71.8 °F 55.8 °F 29.95 in South 7.0 mph 11.0 mph 57% 0.00 in 689.00 W/m2
14:59 71.6 °F 55.1 °F 29.95 in Calm   8.0 mph 56% 0.00 in 696.00 W/m2
15:04 71.4 °F 55.9 °F 29.95 in Calm   10.0 mph 58% 0.00 in 729.00 W/m2
15:09 71.3 °F 56.2 °F 29.95 in Calm   7.0 mph 59% 0.00 in 715.00 W/m2
15:14 71.2 °F 56.2 °F 29.95 in Calm   8.0 mph 59% 0.00 in 682.00 W/m2
15:19 71.0 °F 56.0 °F 29.95 in Calm   13.0 mph 59% 0.00 in 744.00 W/m2
15:24 70.9 °F 55.9 °F 29.95 in Calm   5.0 mph 59% 0.00 in 802.00 W/m2
15:29 70.7 °F 55.7 °F 29.96 in Calm   11.0 mph 59% 0.00 in 775.00 W/m2
15:34 70.4 °F 55.4 °F 29.95 in Calm   8.0 mph 59% 0.00 in 628.00 W/m2
15:39 70.2 °F 55.2 °F 29.95 in SSW 10.0 mph 11.0 mph 59% 0.00 in 789.00 W/m2
15:44 70.0 °F 55.5 °F 29.95 in Calm   9.0 mph 60% 0.00 in 777.00 W/m2
15:49 70.0 °F 55.5 °F 29.95 in Calm   9.0 mph 60% 0.00 in 737.00 W/m2
15:54 69.9 °F 55.4 °F 29.96 in SW 5.0 mph 12.0 mph 60% 0.00 in 599.00 W/m2
15:59 69.8 °F 55.3 °F 29.96 in SSW 10.0 mph 12.0 mph 60% 0.00 in 689.00 W/m2
16:04 69.6 °F 54.7 °F 29.96 in Calm   9.0 mph 59% 0.00 in 647.00 W/m2
16:09 69.3 °F 55.3 °F 29.96 in South 10.0 mph 11.0 mph 61% 0.00 in 666.00 W/m2
16:14 69.1 °F 55.1 °F 29.96 in Calm   7.0 mph 61% 0.00 in 661.00 W/m2
16:19 68.9 °F 54.9 °F 29.96 in SW 2.0 mph 7.0 mph 61% 0.00 in 594.00 W/m2
16:24 68.8 °F 54.8 °F 29.96 in SSW 2.0 mph 9.0 mph 61% 0.00 in 585.00 W/m2
16:29 68.7 °F 55.2 °F 29.96 in Calm   8.0 mph 62% 0.00 in 617.00 W/m2
16:34 68.6 °F 55.1 °F 29.96 in SSW 8.0 mph 10.0 mph 62% 0.00 in 570.00 W/m2
16:39 68.4 °F 54.9 °F 29.96 in SW 2.0 mph 5.0 mph 62% 0.00 in 601.00 W/m2
16:44 68.3 °F 54.8 °F 29.96 in South 1.0 mph 11.0 mph 62% 0.00 in 575.00 W/m2
16:49 68.2 °F 54.7 °F 29.96 in South 1.0 mph 12.0 mph 62% 0.00 in 531.00 W/m2
16:54 68.1 °F 54.6 °F 29.96 in Calm   9.0 mph 62% 0.00 in 526.00 W/m2
16:59 68.0 °F 54.5 °F 29.96 in South 8.0 mph 10.0 mph 62% 0.00 in 482.00 W/m2
17:04 67.9 °F 54.0 °F 29.96 in SSW 1.0 mph 10.0 mph 61% 0.00 in 436.00 W/m2
17:10 67.7 °F 54.2 °F 29.97 in SW 1.0 mph 8.0 mph 62% 0.00 in 455.00 W/m2
17:15 67.5 °F 54.5 °F 29.97 in SSW 3.0 mph 14.0 mph 63% 0.00 in 410.00 W/m2
17:20 67.3 °F 54.3 °F 29.96 in SW 2.0 mph 10.0 mph 63% 0.00 in 457.00 W/m2
17:25 67.2 °F 54.6 °F 29.96 in Calm   7.0 mph 64% 0.00 in 439.00 W/m2
17:30 67.0 °F 54.4 °F 29.96 in SSW 3.0 mph 11.0 mph 64% 0.00 in 417.00 W/m2
17:35 66.9 °F 54.3 °F 29.97 in South 4.0 mph 10.0 mph 64% 0.00 in 408.00 W/m2
17:40 66.8 °F 54.2 °F 29.97 in SSW 3.0 mph 9.0 mph 64% 0.00 in 364.00 W/m2
17:45 66.7 °F 54.6 °F 29.96 in Calm   10.0 mph 65% 0.00 in 369.00 W/m2
17:50 66.7 °F 54.6 °F 29.97 in Calm   11.0 mph 65% 0.00 in 367.00 W/m2
17:55 66.6 °F 54.5 °F 29.97 in SSW 5.0 mph 9.0 mph 65% 0.00 in 341.00 W/m2
18:00 66.5 °F 54.4 °F 29.97 in Calm   10.0 mph 65% 0.00 in 204.00 W/m2
18:05 66.3 °F 54.6 °F 29.97 in WSW 2.0 mph 8.0 mph 66% 0.00 in 283.00 W/m2
18:10 66.2 °F 54.5 °F 29.97 in SSW 3.0 mph 8.0 mph 66% 0.00 in 225.00 W/m2
18:15 66.0 °F 54.3 °F 29.97 in Calm   8.0 mph 66% 0.00 in 243.00 W/m2
18:20 65.8 °F 54.1 °F 29.97 in Calm   9.0 mph 66% 0.00 in 239.00 W/m2
18:25 65.7 °F 54.0 °F 29.97 in Calm   3.0 mph 66% 0.00 in 255.00 W/m2
18:30 65.5 °F 54.3 °F 29.97 in SSW 1.0 mph 5.0 mph 67% 0.00 in 257.00 W/m2
18:35 65.4 °F 54.2 °F 29.97 in Calm   5.0 mph 67% 0.00 in 246.00 W/m2
18:40 65.3 °F 54.1 °F 29.97 in South 2.0 mph 7.0 mph 67% 0.00 in 227.00 W/m2
18:45 65.2 °F 54.0 °F 29.97 in Calm   7.0 mph 67% 0.00 in 197.00 W/m2
18:50 65.0 °F 53.8 °F 29.97 in Calm   4.0 mph 67% 0.00 in 171.00 W/m2
18:55 64.9 °F 53.7 °F 29.97 in Calm   6.0 mph 67% 0.00 in 142.00 W/m2
19:00 64.8 °F 53.6 °F 29.97 in Calm   6.0 mph 67% 0.00 in 118.00 W/m2
19:05 64.5 °F 53.3 °F 29.97 in SSW 3.0 mph 6.0 mph 67% 0.00 in 100.00 W/m2
19:10 64.2 °F 53.0 °F 29.97 in South 4.0 mph 7.0 mph 67% 0.00 in 90.00 W/m2
19:15 64.0 °F 53.2 °F 29.98 in SSW 3.0 mph 4.0 mph 68% 0.00 in 76.00 W/m2
19:20 63.6 °F 52.5 °F 29.97 in Calm   5.0 mph 67% 0.00 in 62.00 W/m2
19:25 63.4 °F 52.7 °F 29.97 in Calm   4.0 mph 68% 0.00 in 49.00 W/m2
19:30 63.1 °F 52.4 °F 29.97 in SSW 1.0 mph 3.0 mph 68% 0.00 in 39.00 W/m2
19:31 63.0 °F 52.3 °F 29.97 in SSW 2.0 mph 3.0 mph 68% 0.00 in 39.00 W/m2
19:36 62.8 °F 52.1 °F 29.98 in South 1.0 mph 2.0 mph 68% 0.00 in 30.00 W/m2
19:41 62.4 °F 51.7 °F 29.98 in Calm     68% 0.00 in 23.00 W/m2
19:46 62.1 °F 51.8 °F 29.98 in South 1.0 mph 3.0 mph 69% 0.00 in 19.00 W/m2
19:51 61.8 °F 51.5 °F 29.98 in Calm     69% 0.00 in 14.00 W/m2
19:56 61.6 °F 51.3 °F 29.99 in South 1.0 mph 1.0 mph 69% 0.00 in 11.00 W/m2
20:01 61.2 °F 51.0 °F 29.99 in South 1.0 mph 3.0 mph 69% 0.00 in 9.00 W/m2
20:06 60.8 °F 51.0 °F 29.99 in Calm     70% 0.00 in 5.00 W/m2
20:11 60.3 °F 50.9 °F 29.99 in Calm     71% 0.00 in 0.00 W/m2
20:16 59.6 °F 50.2 °F 30.00 in Calm     71% 0.00 in 0.00 W/m2
20:21 59.0 °F 50.0 °F 30.00 in Calm   1.0 mph 72% 0.00 in 0.00 W/m2
20:26 58.5 °F 49.5 °F 30.00 in South 1.0 mph 4.0 mph 72% 0.00 in 0.00 W/m2
20:31 58.1 °F 49.5 °F 30.00 in Calm   1.0 mph 73% 0.00 in 0.00 W/m2
20:36 57.9 °F 49.3 °F 30.00 in Calm   1.0 mph 73% 0.00 in 0.00 W/m2
20:41 57.6 °F 49.0 °F 30.00 in South 4.0 mph 5.0 mph 73% 0.00 in 0.00 W/m2
20:46 57.4 °F 49.2 °F 30.00 in Calm     74% 0.00 in 0.00 W/m2
20:51 57.2 °F 49.0 °F 30.01 in Calm   1.0 mph 74% 0.00 in 0.00 W/m2
20:56 57.0 °F 48.4 °F 30.01 in South 2.0 mph 2.0 mph 73% 0.00 in 0.00 W/m2
21:01 56.7 °F 48.5 °F 30.01 in Calm   4.0 mph 74% 0.00 in 0.00 W/m2
21:06 56.5 °F 48.7 °F 30.01 in SSE 7.0 mph 7.0 mph 75% 0.00 in 0.00 W/m2
21:11 56.4 °F 48.6 °F 30.01 in SSE 2.0 mph 7.0 mph 75% 0.00 in 0.00 W/m2
21:16 56.3 °F 48.5 °F 30.01 in South 1.0 mph 2.0 mph 75% 0.00 in 0.00 W/m2
21:21 56.2 °F 48.4 °F 30.02 in South 1.0 mph 8.0 mph 75% 0.00 in 0.00 W/m2
21:26 56.1 °F 48.7 °F 30.02 in South 6.0 mph 7.0 mph 76% 0.00 in 0.00 W/m2
21:31 56.0 °F 48.5 °F 30.02 in South 6.0 mph 9.0 mph 76% 0.00 in 0.00 W/m2
21:36 55.9 °F 48.5 °F 30.02 in South 6.0 mph 9.0 mph 76% 0.00 in 0.00 W/m2
21:41 55.8 °F 48.7 °F 30.03 in South 8.0 mph 10.0 mph 77% 0.00 in 0.00 W/m2
21:46 55.7 °F 48.6 °F 30.03 in South 1.0 mph 8.0 mph 77% 0.00 in 0.00 W/m2
21:51 55.7 °F 49.0 °F 30.03 in SSE 2.0 mph 10.0 mph 78% 0.00 in 0.00 W/m2
21:56 55.7 °F 49.0 °F 30.03 in South 8.0 mph 11.0 mph 78% 0.00 in 0.00 W/m2
22:01 55.7 °F 49.3 °F 30.03 in SSE 8.0 mph 9.0 mph 79% 0.00 in 0.00 W/m2
22:06 55.7 °F 49.0 °F 30.04 in SSE 7.0 mph 7.0 mph 78% 0.00 in 0.00 W/m2
22:11 55.7 °F 49.0 °F 30.04 in Calm   8.0 mph 78% 0.00 in 0.00 W/m2
22:17 55.8 °F 49.0 °F 30.04 in Calm   6.0 mph 78% 0.00 in 0.00 W/m2
22:22 55.8 °F 49.0 °F 30.04 in South 5.0 mph 7.0 mph 78% 0.00 in 0.00 W/m2
22:27 55.8 °F 49.0 °F 30.04 in SSE 6.0 mph 6.0 mph 78% 0.00 in 0.00 W/m2
22:32 55.8 °F 49.0 °F 30.04 in Calm   5.0 mph 78% 0.00 in 0.00 W/m2
22:37 55.8 °F 48.7 °F 30.05 in Calm   1.0 mph 77% 0.00 in 0.00 W/m2
22:42 55.8 °F 48.7 °F 30.05 in Calm   6.0 mph 77% 0.00 in 0.00 W/m2
22:47 55.8 °F 48.7 °F 30.04 in Calm   4.0 mph 77% 0.00 in 0.00 W/m2
22:52 55.7 °F 48.6 °F 30.05 in SSE 7.0 mph 9.0 mph 77% 0.00 in 0.00 W/m2
22:57 55.6 °F 48.9 °F 30.04 in SE 4.0 mph 6.0 mph 78% 0.00 in 0.00 W/m2
23:02 55.5 °F 48.8 °F 30.04 in SSE 6.0 mph 6.0 mph 78% 0.00 in 0.00 W/m2
23:07 55.4 °F 48.7 °F 30.04 in SE 4.0 mph 7.0 mph 78% 0.00 in 0.00 W/m2
23:12 55.3 °F 48.6 °F 30.04 in SE 1.0 mph 9.0 mph 78% 0.00 in 0.00 W/m2
23:17 55.2 °F 48.8 °F 30.04 in SSE 5.0 mph 8.0 mph 79% 0.00 in 0.00 W/m2
23:22 55.1 °F 48.7 °F 30.04 in SE 2.0 mph 10.0 mph 79% 0.00 in 0.00 W/m2
23:27 55.0 °F 48.6 °F 30.04 in SE 4.0 mph 5.0 mph 79% 0.00 in 0.00 W/m2
23:32 54.9 °F 48.9 °F 30.04 in SE 5.0 mph 8.0 mph 80% 0.00 in 0.00 W/m2
23:37 54.9 °F 48.9 °F 30.05 in Calm     80% 0.00 in 0.00 W/m2
23:42 54.8 °F 48.8 °F 30.05 in SSE 6.0 mph 6.0 mph 80% 0.00 in 0.00 W/m2
23:47 54.8 °F 48.8 °F 30.05 in Calm   8.0 mph 80% 0.00 in 0.00 W/m2
23:52 54.8 °F 48.8 °F 30.05 in Calm   5.0 mph 80% 0.00 in 0.00 W/m2
23:57 54.7 °F 48.7 °F 30.06 in Calm     80% 0.00 in 0.00 W/m2
Foresthill Weather
 WU-history PHP script courtesy of   Juneau County Weather.
powered by Cumulus v1.9.3 (1059)
Ambient Weather VWS v14.00
Top Contact Website Map Copyright © 2007 - 2018 Foresthillweather.com Never base important decisions on this or any weather information obtained from the Internet